Regional Weather Roundup
Issued by NWS

Home | Current Version | Previous Version | Graphics & Text | Print | Product List | Glossary On
Versions: 1 2 3 4 5 6 7 8 9 10 11 12 13 14 15 16 17 18 19 20 21 22 23 24 25 26 27 28 29 30 31 32 33 34 35 36 37 38 39 40 41 42 43 44 45 46 47 48 49 50
000
ASUS43 KLMK 251010
RWRKY
KENTUCKY REGIONAL WEATHER ROUNDUP
NATIONAL WEATHER SERVICE LOUISVILLE KY
600 AM EDT MON MAY 25 2015

NOTE "FAIR" INDICATES FEW OR NO CLOUDS BELOW 12,000 FEET
WITH NO SIGNIFICANT WEATHER AND/OR OBSTRUCTIONS TO VISIBILITY.

KYZ001>023-026-027-061>063-070>075-251100-
WESTERN AND SOUTH CENTRAL KENTUCKY

CITY           SKY/WX    TMP DP  RH WIND       PRES   REMARKS
PADUCAH        LGT RAIN  68  65  90 S8        30.03R
HENDERSON      CLOUDY    66  63  88 S18G25    30.04S
OWENSBORO      HVY RAIN  66  66 100 SW14      30.09R FOG
HOPKINSVILLE   RAIN      66  66 100 S8        30.09S FOG
BOWLING GREEN  LGT RAIN  69  63  81 W3        30.10S
GLASGOW        CLOUDY    72  56  58 S5        30.11S
$$

KYZ024-025-028>034-038-045-046-053-251100-
NORTH CENTRAL KENTUCKY

CITY           SKY/WX    TMP DP  RH WIND       PRES   REMARKS
LOUISVILLE/SDF CLOUDY    74  58  57 S14       30.08R
LOUISVILLE/LOU CLOUDY    73  58  59 S8        30.08S
FORT KNOX      MOCLDY    68  61  77 S10       30.08R
$$

KYZ035>037-039>044-047>052-055>060-089>105-251100-
NORTHEAST KENTUCKY

CITY           SKY/WX    TMP DP  RH WIND       PRES   REMARKS
LEXINGTON      MOCLDY    69  55  60 S12       30.13S
COVINGTON      LGT RAIN  70  56  61 S12       30.10R
FRANKFORT      MOCLDY    69  56  62 S7        30.10S
$$

KYZ054-064>069-076>088-106>120-251100-
SOUTHEAST KENTUCKY

CITY           SKY/WX    TMP DP  RH WIND       PRES   REMARKS
JACKSON        PTCLDY    65  50  58 CALM      30.19S
LONDON         PTCLDY    65  50  58 CALM      30.18S
SOMERSET       MOCLDY    68  52  56 S7        30.17S
MIDDLESBORO    PTCLDY    57  55  94 CALM      30.23S
MONTICELLO     PTSUNNY   71  55  56 S13       30.18S
$$




USA.gov is the U.S. government's official web portal to all federal, state and local government web resources and services.